Weather History for KBLV - October, 2012

Change the Weather History Date:

Thursday, October 4, 2012

  Actual Average Record
Temperature  
Mean Temperature 67 °F -  
Max Temperature 82 °F 76 °F 91 °F (1954)
Min Temperature 53 °F 49 °F 31 °F (1989)
Cooling Degree Days 2    
Growing Degree Days 17 (Base 50)    
Moisture  
Dew Point 56 °F    
Average Humidity 73    
Maximum Humidity 99    
Minimum Humidity 41    
Precipitation  
Precipitation 0.00 in - - ()
Sea Level Pressure  
Sea Level Pressure 30.12 in    
Wind  
Wind Speed 5 mph (SW)    
Max Wind Speed 16 mph    
Max Gust Speed 22 mph    
Visibility 10 miles    
Events      
Averages and records for this station are not official NWS values.
T = Trace of Precipitation, MM = Missing Value Source: NWS Daily Summary

Daily Weather History Graph

Daily Weather History Graph

Search for Another Location

Airport or City:

Trip Planner

Search our weather history database for the weather conditions in past years. The results will help you decide how hot, cold, wet, or windy it might be!

Date:

Astronomy

Oct. 04, 2012 Rise Set
Actual Time 6:58 AM CDT 6:36 PM CDT
Civil Twilight 6:31 AM CDT 7:03 PM CDT
Nautical Twilight 6:01 AM CDT 7:33 PM CDT
Astronomical Twilight 5:30 AM CDT 8:04 PM CDT
Moon 9:15 PM CDT (10/4) 11:12 AM CDT (10/4)
Length of Visible Light 12h 31m
Length of Day
11h 38m
Waning Gibbous, 82% of the Moon is Illuminated
Oct 4
Waning Gibbous
Oct 8
Last Quarter
Oct 15
New
Oct 21
First Quarter
Oct 29
Full

Hourly Weather History & Observations

Time (CDT) Temp. Heat Index Dew Point Humidity Pressure Visibility Wind Dir Wind Speed Gust Speed Precip Events Conditions
12:55 AM 57.6 °F - 56.5 °F 96% 30.08 in 10.0 mi South 3.5 mph - N/A   Clear
1:55 AM 57.2 °F - 56.1 °F 96% 30.09 in 10.0 mi Calm Calm - N/A   Clear
2:55 AM 55.4 °F - 55.2 °F 99% 30.09 in 10.0 mi Calm Calm - N/A   Clear
3:55 AM 55.9 °F - 55.6 °F 99% 30.10 in 10.0 mi Calm Calm - N/A   Clear
4:55 AM 54.7 °F - 54.3 °F 99% 30.11 in 10.0 mi South 4.6 mph - N/A   Clear
5:55 AM 53.6 °F - 53.2 °F 99% 30.12 in 10.0 mi South 5.8 mph - N/A   Clear
6:55 AM 53.4 °F - 53.1 °F 99% 30.13 in 10.0 mi Calm Calm - N/A   Clear
7:55 AM 56.3 °F - 55.9 °F 99% 30.14 in 10.0 mi Calm Calm - N/A   Partly Cloudy
8:55 AM 62.1 °F - 58.3 °F 87% 30.16 in 10.0 mi SSW 3.5 mph - N/A   Clear
9:55 AM 68.4 °F - 57.9 °F 69% 30.16 in 10.0 mi SW 10.4 mph - N/A   Clear
10:55 AM 74.1 °F - 58.8 °F 59% 30.15 in 10.0 mi SW 9.2 mph - N/A   Clear
11:55 AM 78.6 °F - 58.1 °F 49% 30.14 in 10.0 mi SW 10.4 mph - N/A   Clear
12:55 PM 80.2 °F 80.4 °F 56.3 °F 44% 30.13 in 10.0 mi SSW 15.0 mph 21.9 mph N/A   Partly Cloudy
1:55 PM 81.0 °F 80.7 °F 55.4 °F 41% 30.10 in 10.0 mi WSW 13.8 mph 20.7 mph N/A   Partly Cloudy
2:55 PM 79.9 °F - 54.9 °F 42% 30.10 in 10.0 mi SW 13.8 mph 19.6 mph N/A   Partly Cloudy
3:55 PM 79.9 °F - 58.1 °F 47% 30.09 in 10.0 mi West 10.4 mph - N/A   Scattered Clouds
4:55 PM 78.4 °F - 58.5 °F 50% 30.09 in 10.0 mi WSW 6.9 mph - N/A   Clear
5:55 PM 77.0 °F - 58.1 °F 52% 30.10 in 10.0 mi SW 5.8 mph - N/A   Scattered Clouds
6:55 PM 70.7 °F - 61.2 °F 72% 30.09 in 10.0 mi South 4.6 mph - N/A   Mostly Cloudy
7:55 PM 70.3 °F - 60.4 °F 71% 30.11 in 10.0 mi Calm Calm - N/A   Mostly Cloudy
8:55 PM 70.3 °F - 59.0 °F 67% 30.11 in 10.0 mi SW 3.5 mph - N/A   Partly Cloudy
9:18 PM 64.4 °F - 53.6 °F 68% 30.14 in 10.0 mi NNW 16.1 mph - N/A   Overcast
9:55 PM 61.2 °F - 50.7 °F 69% 30.15 in 10.0 mi NNW 15.0 mph - N/A   Partly Cloudy
10:55 PM 57.0 °F - 48.2 °F 72% 30.17 in 10.0 mi North 9.2 mph - N/A   Clear
11:55 PM 54.5 °F - 47.3 °F 77% 30.18 in 10.0 mi North 10.4 mph - N/A   Clear